Main page
METAR-TAF:

METAR-TAF

Airports :

Fairford, England

RAF Fairford

latitude: 51-41N, longitude: 001-47W, elevation: 87 m

Current weather observation

The report was made 51 minutes ago, at 01:58 UTC
Wind 9 kt from the West/Northwest
Temperature 14°C
Humidity 94%
Pressure 1012 hPa
Visibility 10 km or more
Overcast at a height of 1600 ft

METAR: EGVA 240158Z AUTO 29009KT 9999 OVC016 14/13 A2987 RMK AO2 SLP117 T01440125 $

Time: 03:49 (02:49 UTC)


TAF: missing

Weather observations and forecasts of more than 4000 airports (METAR and TAF reports).

The available stations are represented by yellow and red dots on the map.

Hover mouse over dot to see the name of the station.

Then click to see weather observations and forecasts.

To change the map : click on the green buttons with a black cross to zoom in, on the green button with a dash to zoom out, or on the green arrows for adjacent maps.


METAR-TAF: